Lynchburg, VA

4:56 AM EDT on August 26, 2016 (GMT -0400)
Lynchburg Regional-Glenn

Weather History for KLYH - February, 2014

Change the Weather History Date:

Sunday, February 16, 2014

  Actual Average Record
Temperature  
Mean Temperature 34 °F 38 °F  
Max Temperature 42 °F 49 °F 73 °F (1976)
Min Temperature 26 °F 27 °F 8 °F (1905)
Degree Days  
Heating Degree Days 31 27  
Month to date heating degree days 467 448  
Since 1 July heating degree days 3209 3120  
Cooling Degree Days 0 0  
Month to date cooling degree days 0 0  
Year to date cooling degree days 0 0  
Moisture  
Dew Point 19 °F    
Average Humidity 53    
Maximum Humidity 59    
Minimum Humidity 46    
Precipitation  
Precipitation 0.00 in 0.11 in 1.60 in (1899)
Month to date precipitation 3.42 1.68  
Year to date precipitation 6.69 4.82  
Snow  
Snow 0.00 in - - ()
Month to date snowfall 10.0  
Since 1 July snowfall 12.0  
Snow Depth 3.00 in    
Sea Level Pressure  
Sea Level Pressure 30.06 in    
Wind  
Wind Speed 5 mph (West)    
Max Wind Speed 13 mph    
Max Gust Speed 22 mph    
Visibility 10 miles    
Events      
T = Trace of Precipitation, MM = Missing Value Source: NWS Daily Summary

Daily Weather History Graph

Daily Weather History Graph

Search for Another Location

Airport or City:

Trip Planner

Search our weather history database for the weather conditions in past years. The results will help you decide how hot, cold, wet, or windy it might be!

Date:

Astronomy

Feb. 16, 2014 Rise Set
Actual Time 7:04 AM EST 5:57 PM EST
Civil Twilight 6:38 AM EST 6:24 PM EST
Nautical Twilight 6:07 AM EST 6:54 PM EST
Astronomical Twilight 5:37 AM EST 7:25 PM EST
Moon 7:49 PM EST (2/16) 7:36 AM EST (2/16)
Length of Visible Light 11h 46m
Length of Day
10h 52m
Full, 97% of the Moon is Illuminated
Feb 16
Full
Feb 22
Last Quarter
Mar 1
New
Mar 8
First Quarter
Mar 16
Full

Hourly Weather History & Observations

Time (EST) Temp. Windchill Dew Point Humidity Pressure Visibility Wind Dir Wind Speed Gust Speed Precip Events Conditions
12:54 AM 27.0 °F 21.6 °F 12.9 °F 56% 30.03 in 10.0 mi Variable 4.6 mph - N/A   Clear
1:54 AM 26.1 °F 21.9 °F 14.0 °F 60% 30.03 in 10.0 mi West 3.5 mph - N/A   Clear
2:54 AM 26.1 °F 20.5 °F 14.0 °F 60% 30.03 in 10.0 mi West 4.6 mph - N/A   Partly Cloudy
3:54 AM 26.1 °F - 14.0 °F 60% 30.02 in 10.0 mi Calm Calm - N/A   Overcast
4:54 AM 26.1 °F 19.4 °F 14.0 °F 60% 30.04 in 10.0 mi WSW 5.8 mph - N/A   Overcast
5:54 AM 26.1 °F 20.5 °F 12.9 °F 58% 30.04 in 10.0 mi West 4.6 mph - N/A   Overcast
6:54 AM 27.0 °F 20.5 °F 12.9 °F 56% 30.05 in 10.0 mi WSW 5.8 mph - N/A   Overcast
7:54 AM 27.0 °F - 12.9 °F 56% 30.07 in 10.0 mi Calm Calm - N/A   Overcast
8:54 AM 28.9 °F 21.9 °F 14.0 °F 54% 30.08 in 10.0 mi WSW 6.9 mph - N/A   Overcast
9:54 AM 30.9 °F 22.8 °F 16.0 °F 54% 30.08 in 10.0 mi WSW 9.2 mph - N/A   Clear
10:54 AM 34.0 °F 26.0 °F 19.0 °F 54% 30.07 in 10.0 mi WSW 10.4 mph - N/A   Clear
11:54 AM 37.0 °F 30.4 °F 21.0 °F 52% 30.06 in 10.0 mi WSW 9.2 mph - N/A   Clear
12:54 PM 37.9 °F 30.9 °F 21.9 °F 53% 30.03 in 10.0 mi WSW 10.4 mph - N/A   Overcast
1:54 PM 39.9 °F 35.1 °F 21.9 °F 49% 30.02 in 10.0 mi West 6.9 mph - N/A   Overcast
2:54 PM 41.0 °F 37.1 °F 23.0 °F 49% 30.00 in 10.0 mi West 5.8 mph - N/A   Overcast
3:54 PM 41.0 °F 38.0 °F 24.1 °F 51% 29.99 in 10.0 mi Variable 4.6 mph - N/A   Overcast
4:54 PM 41.0 °F - 25.0 °F 53% 30.01 in 10.0 mi Calm Calm - N/A   Mostly Cloudy
5:54 PM 41.0 °F 37.1 °F 26.1 °F 55% 30.06 in 10.0 mi Variable 5.8 mph - N/A   Partly Cloudy
6:54 PM 39.0 °F 35.7 °F 23.0 °F 53% 30.10 in 10.0 mi WNW 4.6 mph 17.3 mph N/A   Clear
7:54 PM 37.0 °F 33.3 °F 23.0 °F 57% 30.11 in 10.0 mi West 4.6 mph - N/A   Scattered Clouds
8:54 PM 37.0 °F 33.3 °F 21.9 °F 54% 30.12 in 10.0 mi West 4.6 mph - N/A   Clear
9:54 PM 37.0 °F 31.6 °F 19.0 °F 48% 30.15 in 10.0 mi WNW 6.9 mph - N/A   Clear
10:54 PM 32.0 °F 28.7 °F 19.9 °F 61% 30.18 in 10.0 mi WNW 3.5 mph - N/A   Clear
11:54 PM 30.9 °F 26.2 °F 19.9 °F 64% 30.19 in 10.0 mi NNW 4.6 mph - N/A   Clear